{"data":{"norad_id":69952,"epoch":"2026-09-19T17:33:38.545632Z","epoch_age_seconds":84149,"freshness":"FRESH","line1":"1 69952U 26157K   26262.73169613  .00017163  00000+0  51780-3 0  9997","line2":"2 69952  53.1605 337.4059 0001400  56.2109 303.9027 15.34407779 11252","mean_motion":15.34407779,"eccentricity":0.00014,"inclination_deg":53.1605,"raan_deg":337.4059,"arg_perigee_deg":56.2109,"mean_anomaly_deg":303.9027,"bstar":0.0005178,"rev_number":1125,"period_min":93.847282300568,"perigee_km":461.72240508071,"apogee_km":463.63783387416,"semimajor_km":6840.8171194774,"source":"CELESTRAK","updated_at":"2026-09-20T09:00:44.300567Z"}}